Overview Statistics Trail Chart Weather Telemetry Raw packets
 

This is the latest recevied weather packets stored in our database for station/object IZ1UQG-N2. If no packets are shown the sender has not sent any weather packets the latest 10 day(s).

<< 546 547 548 549 550 551 552 >>
Time Temp. Humidity Pressure Rain* Wind** Luminosity Snow
1787912164 24.44° C 83% 1014.8 hPa 0 mm - 18 W/m² -
1787912104 24.44° C 83% 1014.7 hPa 0 mm - 18 W/m² -
1787912043 24.44° C 83% 1014.7 hPa 0 mm - 19 W/m² -
1787911983 24.44° C 82% 1014.5 hPa 0 mm - 21 W/m² -
1787911923 24.44° C 82% 1014.4 hPa 0 mm - 25 W/m² -
1787911863 24.44° C 81% 1014.2 hPa 0 mm - 28 W/m² -
1787911803 25° C 81% 1014.1 hPa 0 mm - 37 W/m² -
1787911742 25° C 82% 1014.1 hPa 0 mm - 42 W/m² -
1787911682 25° C 81% 1014.1 hPa 0 mm - 46 W/m² -
1787911624 25° C 80% 1014 hPa 0 mm - 49 W/m² -
1787911564 25° C 80% 1014 hPa 0 mm - 54 W/m² -
1787911504 25° C 80% 1014.1 hPa 0 mm - 58 W/m² -
1787911443 25° C 80% 1014.1 hPa 0 mm - 69 W/m² -
1787911383 25° C 80% 1014 hPa 0 mm - 76 W/m² -
1787911323 25° C 79% 1014 hPa 0 mm - 79 W/m² -
1787911263 25° C 79% 1014 hPa 0 mm - 83 W/m² -
1787911202 25° C 79% 1014 hPa 0 mm - 84 W/m² -
1787911144 25° C 79% 1013.9 hPa 0 mm - 84 W/m² -
1787911084 25° C 80% 1014 hPa 0 mm - 86 W/m² -
1787911024 25° C 80% 1014 hPa 0 mm - 90 W/m² -
1787910964 25° C 79% 1014 hPa 0 mm - 95 W/m² -
1787910903 25° C 79% 1014 hPa 0 mm - 100 W/m² -
1787910843 25° C 79% 1014 hPa 0 mm - 105 W/m² -
1787910783 25° C 79% 1013.9 hPa 0 mm - 111 W/m² -
1787910723 25° C 79% 1014 hPa 0 mm - 123 W/m² -

* Rain latest hour (hover to see other rain measurements)
** Current wind speed in m/s (hover to see current wind gust speed)